Flag for Sweden Weather past 2 weeks in Norrköping, Sweden

Now
32 °F

Overcast.


Feels Like: 27 °F
Forecast: 24 / 34 °F
Wind: 5 mph from South

Location: Norrkoping Airport

Current Time: Jan 26, 2015 at 11:47:44 AM

Latest Report: Jan 26, 2015 at 11:20 AM


Visibility: N/A

Pressure: 29.92 "Hg

Humidity: 93%

Dew point: 30 °F

Location of NorrköpingLocation

Historic Weather in Norrköping — Graph

°F

Norrköping temperature yesterday

Maximum temperature yesterday: 34 °F (at 12:50 PM)
Minimum temperature yesterday: 18 °F (at 5:50 AM)
Average temperature yesterday: 30 °F

Past Weeks' High & Low Weather Summary

 TemperatureHumidityPressure
High43 °F (Jan 12, 8:20 PM)100% (Jan 12, 8:50 AM)30.21 "Hg (Jan 12, 8:50 AM)
Low18 °F (Jan 23, 9:50 AM)70% (Jan 17, 12:50 PM)28.85 "Hg (Jan 11, 10:20 AM)
Average32 °F90%29.74 "Hg
* Reported Jan 11 10:20 AM — Jan 26 10:50 AM, Norrköping, Weather by CustomWeather, © 2014

Note: Actual official high and low records may vary slightly from our data, if they occured in-between our weather recording intervals... More about our weather records

Advertising

Norrköping weather history for previous 24 hours

 ConditionsComfort  
Time TempWeatherWind HumidityBarometerVisibility
10:50 AM
Jan 26
30 °FPartly sunny.6 mph93%29.92 "HgN/A
10:20 AM30 °FPartly sunny.5 mph93%29.95 "HgN/A
9:50 AM28 °FPartly sunny.5 mph93%29.95 "HgN/A
9:20 AM28 °FPartly sunny.5 mph93%29.95 "HgN/A
8:50 AM27 °FPartly sunny.2 mph100%29.98 "HgN/A
8:20 AM27 °FPartly sunny.2 mph100%29.98 "HgN/A
7:50 AM27 °FPassing clouds.3 mph93%29.98 "HgN/A
7:20 AM25 °FClear.5 mph100%30.01 "Hg10 mi
6:50 AM25 °FClear.3 mph100%30.01 "Hg10 mi
6:20 AM25 °FOvercast.5 mph100%30.01 "HgN/A
5:50 AM21 °FPassing clouds.2 mph100%30.04 "HgN/A
5:20 AM21 °FLight fog.5 mph100%30.04 "Hg1 mi
4:50 AM23 °FLight fog.2 mph100%30.04 "Hg1 mi
4:20 AM21 °FLight fog.3 mph100%30.07 "Hg1 mi
3:50 AM19 °FIce fog.1 mph100%30.07 "Hg1 mi
3:20 AM27 °FPassing clouds.2 mph93%30.07 "HgN/A
2:50 AM27 °FPassing clouds.5 mph93%30.07 "HgN/A
2:20 AM28 °FOvercast.6 mph93%30.09 "HgN/A
1:50 AM30 °FOvercast.7 mph86%30.09 "HgN/A
1:20 AM30 °FOvercast.8 mph86%30.09 "HgN/A
12:50 AM30 °FOvercast.8 mph86%30.09 "HgN/A
12:20 AM30 °FOvercast.6 mph86%30.09 "HgN/A
11:50 PM
Jan 25
30 °FOvercast.9 mph86%30.12 "HgN/A
11:20 PM30 °FOvercast.8 mph93%30.12 "HgN/A
10:20 PM30 °FOvercast.8 mph86%30.15 "HgN/A
9:50 PM30 °FOvercast.7 mph93%30.15 "HgN/A
9:20 PM30 °FOvercast.8 mph93%30.15 "HgN/A
8:50 PM30 °FOvercast.6 mph93%30.15 "HgN/A
8:20 PM32 °FOvercast.6 mph87%30.15 "HgN/A
7:50 PM32 °FOvercast.8 mph87%30.15 "HgN/A
7:20 PM32 °FOvercast.5 mph93%30.15 "HgN/A
6:50 PM32 °FOvercast.5 mph93%30.15 "HgN/A
6:20 PM32 °FOvercast.3 mph93%30.15 "HgN/A
5:50 PM32 °FOvercast.6 mph93%30.15 "HgN/A
5:20 PM32 °FOvercast.6 mph100%30.15 "HgN/A
4:50 PM32 °FOvercast.5 mph100%30.12 "HgN/A
4:20 PM32 °FPassing clouds.3 mph100%30.12 "HgN/A
3:50 PM32 °FLight snow. Broken clouds.5 mph100%30.12 "Hg4 mi
3:20 PM32 °FLight snow. Broken clouds.5 mph100%30.12 "Hg4 mi
2:50 PM32 °FSleet. More clouds than sun.3 mph100%30.09 "Hg4 mi
2:20 PM32 °FLow clouds.7 mph100%30.09 "HgN/A
1:50 PM34 °FOvercast.3 mph93%30.09 "HgN/A
1:20 PM34 °FMostly cloudy.6 mph93%30.09 "HgN/A
12:50 PM34 °FOvercast.2 mph100%30.09 "Hg5 mi
12:20 PM32 °FLight rain. Cloudy.3 mph100%30.09 "Hg3 mi
11:50 AM32 °FIce fog.3 mph100%30.09 "Hg5 mi
11:20 AM32 °FIce fog.3 mph100%30.07 "Hg5 mi
Weather by CustomWeather, © 2014

See weather overviewHow to use our weather pages